Simultaneous Nadir Overpasses (SNOs) Predictions

Prediction of SNOs between GOES-17 and AQUA Satellite Orbit:

Table of predicted SNOs for the next 14.0 days since TLE Epoch: 8/19/2023
Index Date Time (GOES-17) GOES-17 Lat,Lon AQUA Lat,Lon Distance(km) Time Diff (sec)
1 08/19/2023 08:40:05 0.01,-104.72 -0.52,-102.31 274.45 80
2 08/19/2023 21:00:55 -0.01,-104.69 -0.55,-107.35 302.17 80
3 08/21/2023 20:49:11 -0.01,-104.69 0.20,-103.84 97.57 80
4 08/22/2023 09:09:51 0.01,-104.72 0.88,-108.85 469.04 80
5 08/23/2023 20:34:46 -0.01,-104.69 0.92,-100.32 497.11 80
6 08/24/2023 08:55:26 0.02,-104.71 0.15,-105.33 69.64 80
7 08/26/2023 08:38:22 0.02,-104.70 -0.61,-101.81 329.56 80
8 08/26/2023 20:59:10 -0.02,-104.67 -0.48,-106.85 247.50 80
9 08/28/2023 20:47:24 -0.03,-104.66 0.27,-103.33 151.96 80
10 08/29/2023 09:08:05 0.03,-104.69 0.79,-108.34 414.25 80
11 08/31/2023 08:53:38 0.04,-104.68 0.06,-104.81 14.28 80
